Current weather by "City, St" or "zip code"  
 
Advertise Here

Current Conditions: De Ridder, Beauregard Parish Airport, LA

Overcast


60.0 F

Last Updated on Jan 20 2021, 11:55 am CST
Humidity: 72%
Wind Speed: SE 3.5 mph
Barometer 30.33 in
Dewpoint: 51.1 F
Visibility: 10.00 mi
Precip: --
Heat Index: NA
Wind Chill: NA
Current conditions at:

De Ridder, Beauregard Parish Airport, LA (KDRI)

Lat: 30.83167 Lon: 93.33972

Local Radar Image active severe weather and emergency alerts image image weather storm and storm spotter reports image weather observation monitoring service image
Local
Radar
Active
Alerts
Storm Reports Obs
Monitoring

Sign-up For Email & Text Message Weather Alert Notification Services


Advertise Here

Observation History for De Ridder, Beauregard Parish Airport, LA


Time Wind
(mph)
Vis
(mi)
Weather Precip (in) Temperature (F) Relative
Humidity
Wind
Chill
(F)
Heat
Index
(F)
Pressure
Air Dwpt altimeter
(in)
sea level
(mb)
Rmks
11:55 am CST SE 3.5 10.00 Overcast -- 60.0 51.1 72% NA NA 30.33 M
10:55 am CST E 3.5 10.00 Overcast -- 58.0 50.7 76% NA NA 30.37 M
9:55 am CST E 4.6 10.00 Overcast -- 57.0 50.5 79% 57 NA 30.38 M
8:55 am CST NE 6.9 10.00 Overcast -- 56.0 50.4 82% 54 NA 30.37 M
7:55 am CST E 4.6 10.00 Overcast -- 55.0 50.5 85% 54 NA 30.36 M
6:55 am CST N 0.0 10.00 Overcast -- 55.0 50.5 85% NA NA 30.38 M
6:35 am CST E 3.5 10.00 Overcast -- 55.0 50.5 84% NA NA 30.37 M
5:55 am CST NE 5.8 10.00 Overcast -- 55.0 50.5 84% 54 NA 30.35 M
4:55 am CST NE 5.8 10.00 Overcast -- 56.0 50.7 83% 55 NA 30.37 M
3:55 am CST N 0.0 10.00 Overcast -- 57.0 50.2 79% NA NA 30.38 M
3:35 am CST NE 4.6 10.00 Overcast -- 57.0 50.0 78% 57 NA 30.37 M
2:55 am CST N 4.6 10.00 Overcast -- 57.0 49.5 75% 57 NA 30.38 M
1:55 am CST N 5.8 10.00 Overcast -- 58.0 49.3 73% 57 NA 30.38 M
1:35 am CST NE 3.5 10.00 Overcast -- 58.0 49.5 74% NA NA 30.38 M
12:55 am CST N 3.5 10.00 Overcast -- 58.0 49.5 73% NA NA 30.38 M
11:55 pm CST N 4.6 10.00 Overcast -- 58.0 50.4 77% 58 NA 30.38 M
10:55 pm CST N 5.8 10.00 Partly Cloudy -- 56.0 53.2 90% 55 NA 30.38 M
9:55 pm CST N 0.0 10.00 Overcast -- 59.0 53.4 82% NA NA 30.36 M
8:55 pm CST N 0.0 10.00 Overcast -- 60.0 53.1 79% NA NA 30.35 M
7:55 pm CST N 0.0 10.00 Overcast -- 60.0 52.2 75% NA NA 30.33 M
6:55 pm CST N 0.0 10.00 Overcast -- 63.0 51.8 68% NA NA 30.32 M
6:35 pm CST N 0.0 10.00 Mostly Cloudy -- 64.0 51.6 64% NA NA 30.31 M
5:55 pm CST S 4.6 10.00 Partly Cloudy -- 68.0 51.6 56% NA NA 30.29 M
4:55 pm CST S 8.1 10.00 Overcast -- 72.0 52.2 50% NA NA 30.29 M

Regional Weather Observation


Ft. Polk/Self Strip, LA (KDNK)

Light Rain
66.0 F

De Ridder, Beauregard Parish Airport, LA (KDRI)

Overcast
60.0 F

Ft. Polk - Peason Ridge, LA (KAQV)

Overcast
57.0 F

De Quincy Industrial Airpark, LA (K5R8)

Overcast
61.0 F

Natchitoches, Natchitoches Regional Airport, LA (KIER)

Overcast
59.0 F

Jasper, Jasper County-Bell Field Airport, TX (KJAS)

Overcast
60.0 F